User: anonymous   Login
Location: Rehoboth Beach
(38.7438°N, 75.1341°W)
Time: 05:36:52
(UTC-05:00)
Language:

Cosmos 1452 Rocket - Orbit

View from above orbital plane
View from above orbital plane
View from above satellite
View from above satellite

Ground track
Ground track

The orbit data is extracted from the following two-line orbital elements,

1 13992U 83031B   14350.28355334  .00000326  00000-0  12149-3 0  5846
2 13992 074.0534 243.1037 0003914 090.6844 047.9549 14.35841501657623
Epoch (UTC): 16 December 2014 06:48:19
Eccentricity: 0.0003914
inclination: 74.0534°
perigee height: 769 km
apogee height: 775 km
right ascension of ascending node: 243.1037°
argument of perigee: 90.6844°
revolutions per day: 14.35841501
mean anomaly at epoch: 47.9549°
orbit number at epoch: 65762

The dashed part of the orbit path shows where the satellite is in the earth's shadow,  

DLR